ATLAS 5 CENTAUR DEB, 47096

Orbit data source: Space-Track

ATLAS 5 CENTAUR DEB, 47096 is space debris in HEO originally from a launch on Wed, 17 Sep 2014 UTC launched from the Air Force Eastern Test Range (AFETR). Debris objects in space refer to the collection of defunct objects orbiting the Earth. Examples of debris include non-operational satellites, rocket bodies, and fragments generated from explosions, collisions, or faulty payload assembly.

Loading next visibility...
Identifier
47096, 2014-055DE
Orbit
HEO
Country
Flag of USUS
Related business
Flag of USUnited Launch Alliance/Lockheed Martin (US)
Manufacturer
Unknown
Mission
Spacecraft
Bus & Motor
Unknown
Mass
Unknown
Launch date (UTC)
2014-09-17 (11 years ago)
Launch vehicle
Unknown
Launch site
Air Force Eastern Test Range (AFETR)
Object type
Payload
Rocket body
Debris
Shape & HBR
Unknown shape, 1.1 m
Radar Cross Section
RCS unknown

Expand to show TLE details & history
Last TLE update: 2 days ago

TLE from 2 days ago
0 ATLAS 5 CENTAUR DEB
1 47096U 14055DE  25305.05965705  .00000020  00000-0  00000-0 0  9995
2 47096  19.2415 188.4529 4900147  86.9918 325.7573  1.79155267 33037
Epoch: 2025-11-01T01:25Z
TLE epoch observation values (Epoch: 2025-11-01T01:25:54.369Z)
Latitude
0.00002°
Longitude
126.46419°
Altitude
14,822.859 km
Speed
4.867 km/s
True Right ascension
12h 34m 08s
True Declination
0° 00' 00"
Sunlit
Object was in daylight at epoch
Visualization orbit readout
Latitude
Unknown
Longitude
Unknown
Altitude
Unknown
Speed
Unknown
Apparent Right ascension
Unknown
Apparent Declination
Unknown
Sunlit
N/A
Visualization observer readout
Local Sidereal Time
07:24:55
Azimuth
Unknown
Elevation
Unknown
Doppler factor
Unknown
Orbital elements
Apogee altitude
36,293.151 km
Perigee altitude
8,226.907 km
Semi-major axis
28,638.166 km
Eccentricity
0.49001
Inclination
19.2415°
RAAN
188.4529°
Arg. of periapsis
86.9918°
True anomaly
273.00666°
Mean anomaly
325.7573°
Eccentric anomaly
301.92937°
Mean motion
0.44784 °/min
Orbital period
803.85 mins
BSTAR
0
Loading maneuver chart data...
Computing Atmospheric mass density...

Documentation

Showing up to 5 results
|